contact:dominique.lefevre@mio.osupytheas.fr, maurice.libes@osupytheas.fr, didier.mallarino@osupytheas.fr
Project:EMSO http://www.emso-fr.org/EMSO-France
Depth: 2436.0 m
Title:EMSO Ligure Ouest : Data MII capteur CSTAR
DateTime,Latitude,Longitude,Instrument_Serial,Reference_Counts,Signal_Counts,Corrected_Signal_raw_counts,Calculated_Beam_c_inverse_meters,Internal_thermistor_counts
DateTime,Latitude,Longitude,Instrument_Serial,Reference_Counts,Signal_Counts,Corrected_Signal_raw_counts,Calculated_Beam_c_inverse_meters,Internal_thermistor_counts
2019-08-17T00:01:07,42.805,6.029,CST-1368DR,8276,11584,15426,0.049,551
2019-08-17T00:04:08,42.805,6.029,CST-1368DR,8276,11581,15421,0.050,551
2019-08-17T00:07:10,42.805,6.029,CST-1368DR,8276,11580,15420,0.051,551
2019-08-17T00:10:12,42.805,6.029,CST-1368DR,8276,11583,15424,0.049,551
2019-08-17T00:13:13,42.805,6.029,CST-1368DR,8276,11583,15424,0.049,551
2019-08-17T00:16:15,42.805,6.029,CST-1368DR,8276,11583,15424,0.049,551
2019-08-17T00:19:17,42.805,6.029,CST-1368DR,8276,11581,15422,0.050,551
2019-08-17T00:22:18,42.805,6.029,CST-1368DR,8276,11580,15420,0.051,551
2019-08-17T00:25:20,42.805,6.029,CST-1368DR,8276,11583,15424,0.049,551
2019-08-17T00:28:22,42.805,6.029,CST-1368DR,8276,11583,15424,0.049,550
2019-08-17T00:31:23,42.805,6.029,CST-1368DR,8276,11584,15426,0.049,551
2019-08-17T00:34:25,42.805,6.029,CST-1368DR,8276,11583,15424,0.049,551
2019-08-17T00:37:26,42.805,6.029,CST-1368DR,8276,11581,15421,0.050,551
2019-08-17T00:40:28,42.805,6.029,CST-1368DR,8276,11583,15424,0.049,551
2019-08-17T00:43:30,42.805,6.029,CST-1368DR,8276,11582,15423,0.050,551
2019-08-17T00:46:31,42.805,6.029,CST-1368DR,8276,11584,15425,0.049,551
2019-08-17T00:49:33,42.805,6.029,CST-1368DR,8275,11582,15424,0.049,551
2019-08-17T00:52:35,42.805,6.029,CST-1368DR,8275,11580,15422,0.050,551
2019-08-17T00:55:36,42.805,6.029,CST-1368DR,8275,11582,15424,0.049,551
2019-08-17T00:58:38,42.805,6.029,CST-1368DR,8275,11582,15424,0.049,551
2019-08-17T01:01:40,42.805,6.029,CST-1368DR,8275,11570,15409,0.053,551
2019-08-17T01:04:41,42.805,6.029,CST-1368DR,8275,11579,15421,0.050,551
2019-08-17T01:07:43,42.805,6.029,CST-1368DR,8275,11579,15420,0.051,551
2019-08-17T01:10:45,42.805,6.029,CST-1368DR,8275,11583,15425,0.049,551
2019-08-17T01:13:46,42.805,6.029,CST-1368DR,8275,11581,15424,0.049,551
2019-08-17T01:16:48,42.805,6.029,CST-1368DR,8275,11580,15422,0.050,551
2019-08-17T01:19:49,42.805,6.029,CST-1368DR,8275,11582,15424,0.049,551
2019-08-17T01:22:51,42.805,6.029,CST-1368DR,8275,11578,15419,0.051,551
2019-08-17T01:25:53,42.805,6.029,CST-1368DR,8275,11583,15426,0.049,551
2019-08-17T01:28:54,42.805,6.029,CST-1368DR,8275,11584,15427,0.049,551
2019-08-17T01:31:56,42.805,6.029,CST-1368DR,8275,11583,15426,0.049,551
2019-08-17T01:34:58,42.805,6.029,CST-1368DR,8275,11581,15423,0.050,550
2019-08-17T01:37:59,42.805,6.029,CST-1368DR,8275,11582,15424,0.049,551
2019-08-17T01:41:01,42.805,6.029,CST-1368DR,8275,11580,15422,0.050,551
2019-08-17T01:44:02,42.805,6.029,CST-1368DR,8275,11581,15423,0.050,551
2019-08-17T01:47:04,42.805,6.029,CST-1368DR,8275,11576,15416,0.052,551
2019-08-17T01:50:06,42.805,6.029,CST-1368DR,8275,11583,15426,0.049,551
2019-08-17T01:53:07,42.805,6.029,CST-1368DR,8275,11580,15422,0.050,551
2019-08-17T01:56:09,42.805,6.029,CST-1368DR,8275,11582,15424,0.049,551
2019-08-17T01:59:11,42.805,6.029,CST-1368DR,8275,11582,15424,0.049,551
2019-08-17T02:02:12,42.805,6.029,CST-1368DR,8275,11583,15425,0.049,551
2019-08-17T02:05:14,42.805,6.029,CST-1368DR,8275,11581,15423,0.050,551
2019-08-17T02:08:16,42.805,6.029,CST-1368DR,8275,11580,15421,0.050,550
2019-08-17T02:11:17,42.805,6.029,CST-1368DR,8275,11581,15423,0.050,551
2019-08-17T02:14:19,42.805,6.029,CST-1368DR,8275,11581,15423,0.050,551
2019-08-17T02:17:20,42.805,6.029,CST-1368DR,8275,11576,15416,0.052,550
2019-08-17T02:20:22,42.805,6.029,CST-1368DR,8275,11581,15423,0.050,551
2019-08-17T02:23:24,42.805,6.029,CST-1368DR,8275,11582,15424,0.049,551
2019-08-17T02:26:25,42.805,6.029,CST-1368DR,8275,11579,15420,0.051,551
2019-08-17T02:29:27,42.805,6.029,CST-1368DR,8275,11576,15417,0.051,550
2019-08-17T02:32:29,42.805,6.029,CST-1368DR,8275,11578,15419,0.051,551
2019-08-17T02:35:30,42.805,6.029,CST-1368DR,8275,11579,15420,0.051,551
2019-08-17T02:38:32,42.805,6.029,CST-1368DR,8275,11578,15420,0.051,550
2019-08-17T02:41:34,42.805,6.029,CST-1368DR,8275,11580,15422,0.050,551
2019-08-17T02:44:35,42.805,6.029,CST-1368DR,8274,11575,15417,0.051,551
2019-08-17T02:47:37,42.805,6.029,CST-1368DR,8274,11581,15425,0.049,551
2019-08-17T02:50:39,42.805,6.029,CST-1368DR,8275,11580,15421,0.050,550
2019-08-17T02:53:40,42.805,6.029,CST-1368DR,8274,11569,15409,0.053,550
2019-08-17T02:56:42,42.805,6.029,CST-1368DR,8275,11578,15420,0.051,551
2019-08-17T02:59:44,42.805,6.029,CST-1368DR,8274,11580,15423,0.050,551
2019-08-17T03:02:45,42.805,6.029,CST-1368DR,8274,11580,15423,0.050,551
2019-08-17T03:05:47,42.805,6.029,CST-1368DR,8274,11581,15425,0.049,551
2019-08-17T03:08:49,42.805,6.029,CST-1368DR,8274,11580,15424,0.049,551
2019-08-17T03:11:50,42.805,6.029,CST-1368DR,8274,11579,15422,0.050,551
2019-08-17T03:14:52,42.805,6.029,CST-1368DR,8274,11579,15422,0.050,551
2019-08-17T03:17:54,42.805,6.029,CST-1368DR,8274,11577,15419,0.051,551
2019-08-17T03:20:55,42.805,6.029,CST-1368DR,8274,11580,15423,0.050,551
2019-08-17T03:23:57,42.805,6.029,CST-1368DR,8274,11577,15420,0.051,551
2019-08-17T03:26:59,42.805,6.029,CST-1368DR,8274,11579,15422,0.050,551
2019-08-17T03:30:00,42.805,6.029,CST-1368DR,8274,11581,15425,0.049,551
2019-08-17T03:33:02,42.805,6.029,CST-1368DR,8274,11581,15424,0.049,550
2019-08-17T03:36:03,42.805,6.029,CST-1368DR,8274,11568,15407,0.054,551
2019-08-17T03:39:05,42.805,6.029,CST-1368DR,8274,11580,15424,0.049,551
2019-08-17T03:42:07,42.805,6.029,CST-1368DR,8274,11577,15420,0.051,551
2019-08-17T03:45:08,42.805,6.029,CST-1368DR,8274,11580,15424,0.049,551
2019-08-17T03:48:10,42.805,6.029,CST-1368DR,8274,11580,15423,0.050,550
2019-08-17T03:51:12,42.805,6.029,CST-1368DR,8274,11581,15425,0.049,551
2019-08-17T03:54:13,42.805,6.029,CST-1368DR,8274,11576,15418,0.051,551
2019-08-17T03:57:15,42.805,6.029,CST-1368DR,8274,11581,15425,0.049,551
2019-08-17T04:00:16,42.805,6.029,CST-1368DR,8274,11580,15424,0.049,551
2019-08-17T04:03:18,42.805,6.029,CST-1368DR,8274,11581,15425,0.049,551
2019-08-17T04:06:20,42.805,6.029,CST-1368DR,8274,11581,15425,0.049,551
2019-08-17T04:09:21,42.805,6.029,CST-1368DR,8274,11581,15424,0.049,551
2019-08-17T04:12:23,42.805,6.029,CST-1368DR,8274,11579,15422,0.050,551
2019-08-17T04:15:25,42.805,6.029,CST-1368DR,8274,11578,15421,0.050,550
2019-08-17T04:18:26,42.805,6.029,CST-1368DR,8274,11580,15423,0.050,551
2019-08-17T04:21:28,42.805,6.029,CST-1368DR,8274,11580,15424,0.049,550
2019-08-17T04:24:30,42.805,6.029,CST-1368DR,8274,11577,15419,0.051,551
2019-08-17T04:27:31,42.805,6.029,CST-1368DR,8274,11580,15423,0.050,551
2019-08-17T04:30:33,42.805,6.029,CST-1368DR,8273,11555,15392,0.058,551
2019-08-17T04:33:35,42.805,6.029,CST-1368DR,8274,11578,15421,0.050,551
2019-08-17T04:36:36,42.805,6.029,CST-1368DR,8273,11576,15420,0.051,551
2019-08-17T04:39:38,42.805,6.029,CST-1368DR,8273,11579,15424,0.049,551
2019-08-17T04:42:39,42.805,6.029,CST-1368DR,8273,11579,15423,0.050,551
2019-08-17T04:45:41,42.805,6.029,CST-1368DR,8273,11575,15419,0.051,551
2019-08-17T04:48:43,42.805,6.029,CST-1368DR,8273,11577,15422,0.050,551
2019-08-17T04:51:44,42.805,6.029,CST-1368DR,8273,11576,15420,0.051,550
2019-08-17T04:54:46,42.805,6.029,CST-1368DR,8273,11577,15421,0.050,551
2019-08-17T04:57:48,42.805,6.029,CST-1368DR,8273,11579,15424,0.049,551
2019-08-17T05:00:50,42.805,6.029,CST-1368DR,8273,11579,15424,0.049,551
2019-08-17T05:03:52,42.805,6.029,CST-1368DR,8273,11578,15422,0.050,551
2019-08-17T05:06:53,42.805,6.029,CST-1368DR,8273,11578,15422,0.050,551
2019-08-17T05:09:55,42.805,6.029,CST-1368DR,8273,11575,15419,0.051,550
2019-08-17T05:12:57,42.805,6.029,CST-1368DR,8273,11579,15424,0.049,551
2019-08-17T05:15:58,42.805,6.029,CST-1368DR,8273,11574,15418,0.051,550
2019-08-17T05:19:00,42.805,6.029,CST-1368DR,8273,11570,15412,0.053,551
2019-08-17T05:22:02,42.805,6.029,CST-1368DR,8273,11575,15418,0.051,551
2019-08-17T05:25:03,42.805,6.029,CST-1368DR,8273,11576,15420,0.051,551
2019-08-17T05:28:05,42.805,6.029,CST-1368DR,8273,11575,15418,0.051,551
2019-08-17T05:31:07,42.805,6.029,CST-1368DR,8273,11580,15425,0.049,551
2019-08-17T05:34:08,42.805,6.029,CST-1368DR,8273,11577,15421,0.050,551
2019-08-17T05:37:10,42.805,6.029,CST-1368DR,8273,11575,15419,0.051,551
2019-08-17T05:40:12,42.805,6.029,CST-1368DR,8273,11575,15418,0.051,551
2019-08-17T05:43:13,42.805,6.029,CST-1368DR,8273,11577,15421,0.050,551
2019-08-17T05:46:15,42.805,6.029,CST-1368DR,8273,11572,15415,0.052,550
2019-08-17T05:49:16,42.805,6.029,CST-1368DR,8273,11579,15423,0.050,551
2019-08-17T05:52:18,42.805,6.029,CST-1368DR,8273,11580,15425,0.049,550
2019-08-17T05:55:20,42.805,6.029,CST-1368DR,8273,11578,15422,0.050,550
2019-08-17T05:58:21,42.805,6.029,CST-1368DR,8273,11579,15424,0.049,550
2019-08-17T06:01:23,42.805,6.029,CST-1368DR,8273,11578,15422,0.050,551
2019-08-17T06:04:25,42.805,6.029,CST-1368DR,8273,11577,15421,0.050,550
2019-08-17T06:07:26,42.805,6.029,CST-1368DR,8273,11580,15425,0.049,550
2019-08-17T06:10:28,42.805,6.029,CST-1368DR,8273,11578,15423,0.050,551
2019-08-17T06:13:30,42.805,6.029,CST-1368DR,8273,11574,15418,0.051,550
2019-08-17T06:16:31,42.805,6.029,CST-1368DR,8273,11580,15425,0.049,551
2019-08-17T06:19:33,42.805,6.029,CST-1368DR,8273,11578,15423,0.050,551
2019-08-17T06:22:34,42.805,6.029,CST-1368DR,8273,11578,15423,0.050,550
2019-08-17T06:25:36,42.805,6.029,CST-1368DR,8273,11577,15421,0.050,551
2019-08-17T06:28:38,42.805,6.029,CST-1368DR,8272,11575,15421,0.050,551
2019-08-17T06:31:39,42.805,6.029,CST-1368DR,8272,11574,15419,0.051,551
2019-08-17T06:34:41,42.805,6.029,CST-1368DR,8272,11578,15424,0.049,551
2019-08-17T06:37:43,42.805,6.029,CST-1368DR,8272,11577,15424,0.049,551
2019-08-17T06:40:44,42.805,6.029,CST-1368DR,8273,11578,15422,0.050,551
2019-08-17T06:43:46,42.805,6.029,CST-1368DR,8272,11575,15421,0.050,551
2019-08-17T06:46:48,42.805,6.029,CST-1368DR,8272,11575,15421,0.050,551
2019-08-17T06:49:49,42.805,6.029,CST-1368DR,8272,11574,15419,0.051,551
2019-08-17T06:52:51,42.805,6.029,CST-1368DR,8272,11578,15424,0.049,550
2019-08-17T06:55:52,42.805,6.029,CST-1368DR,8272,11576,15422,0.050,550
2019-08-17T06:58:54,42.805,6.029,CST-1368DR,8272,11579,15425,0.049,551
2019-08-17T07:01:56,42.805,6.029,CST-1368DR,8272,11576,15422,0.050,551
2019-08-17T07:04:57,42.805,6.029,CST-1368DR,8272,11577,15423,0.050,551
2019-08-17T07:07:59,42.805,6.029,CST-1368DR,8272,11576,15422,0.050,551
2019-08-17T07:11:01,42.805,6.029,CST-1368DR,8272,11580,15427,0.049,551
2019-08-17T07:14:02,42.805,6.029,CST-1368DR,8272,11578,15425,0.049,551
2019-08-17T07:17:04,42.805,6.029,CST-1368DR,8272,11578,15424,0.049,551
2019-08-17T07:20:06,42.805,6.029,CST-1368DR,8272,11580,15427,0.049,551
2019-08-17T07:23:07,42.805,6.029,CST-1368DR,8272,11576,15422,0.050,551
2019-08-17T07:26:09,42.805,6.029,CST-1368DR,8272,11580,15427,0.049,551
2019-08-17T07:29:10,42.805,6.029,CST-1368DR,8272,11580,15427,0.049,551
2019-08-17T07:32:12,42.805,6.029,CST-1368DR,8272,11577,15423,0.050,551
2019-08-17T07:35:14,42.805,6.029,CST-1368DR,8272,11579,15425,0.049,551
2019-08-17T07:38:15,42.805,6.029,CST-1368DR,8272,11577,15423,0.050,551
2019-08-17T07:41:17,42.805,6.029,CST-1368DR,8272,11579,15426,0.049,550
2019-08-17T07:44:19,42.805,6.029,CST-1368DR,8272,11579,15425,0.049,550
2019-08-17T07:47:20,42.805,6.029,CST-1368DR,8272,11578,15425,0.049,551
2019-08-17T07:50:22,42.805,6.029,CST-1368DR,8272,11575,15421,0.050,551
2019-08-17T07:53:24,42.805,6.029,CST-1368DR,8272,11578,15425,0.049,551
2019-08-17T07:56:25,42.805,6.029,CST-1368DR,8272,11578,15425,0.049,551
2019-08-17T07:59:27,42.805,6.029,CST-1368DR,8272,11579,15426,0.049,551
2019-08-17T08:02:29,42.805,6.029,CST-1368DR,8272,11577,15423,0.050,551
2019-08-17T08:05:30,42.805,6.029,CST-1368DR,8272,11578,15425,0.049,550
2019-08-17T08:08:32,42.805,6.029,CST-1368DR,8272,11579,15426,0.049,551
2019-08-17T08:11:33,42.805,6.029,CST-1368DR,8272,11578,15425,0.049,551
2019-08-17T08:14:35,42.805,6.029,CST-1368DR,8272,11578,15425,0.049,551
2019-08-17T08:17:37,42.805,6.029,CST-1368DR,8272,11579,15425,0.049,551
2019-08-17T08:20:38,42.805,6.029,CST-1368DR,8272,11578,15424,0.049,550
2019-08-17T08:23:40,42.805,6.029,CST-1368DR,8272,11577,15424,0.049,551
2019-08-17T08:26:42,42.805,6.029,CST-1368DR,8272,11579,15426,0.049,551
2019-08-17T08:29:43,42.805,6.029,CST-1368DR,8271,11578,15426,0.049,551
2019-08-17T08:32:45,42.805,6.029,CST-1368DR,8271,11575,15422,0.050,551
2019-08-17T08:35:47,42.805,6.029,CST-1368DR,8271,11577,15424,0.049,550
2019-08-17T08:38:48,42.805,6.029,CST-1368DR,8271,11576,15424,0.049,551
2019-08-17T08:41:50,42.805,6.029,CST-1368DR,8271,11573,15419,0.051,551
2019-08-17T08:44:51,42.805,6.029,CST-1368DR,8271,11575,15422,0.050,551
2019-08-17T08:47:53,42.805,6.029,CST-1368DR,8271,11577,15424,0.049,551
2019-08-17T08:50:55,42.805,6.029,CST-1368DR,8271,11577,15424,0.049,551
2019-08-17T08:53:56,42.805,6.029,CST-1368DR,8271,11578,15426,0.049,551
2019-08-17T08:56:58,42.805,6.029,CST-1368DR,8271,11578,15426,0.049,551
2019-08-17T09:00:00,42.805,6.029,CST-1368DR,8271,11576,15424,0.049,551
2019-08-17T09:03:01,42.805,6.029,CST-1368DR,8271,11577,15425,0.049,551
2019-08-17T09:06:03,42.805,6.029,CST-1368DR,8271,11575,15423,0.050,551
2019-08-17T09:09:05,42.805,6.029,CST-1368DR,8271,11577,15425,0.049,551
2019-08-17T09:12:06,42.805,6.029,CST-1368DR,8271,11574,15421,0.050,550
2019-08-17T09:15:08,42.805,6.029,CST-1368DR,8271,11575,15422,0.050,551
2019-08-17T09:18:09,42.805,6.029,CST-1368DR,8271,11577,15425,0.049,551
2019-08-17T09:21:11,42.805,6.029,CST-1368DR,8271,11574,15421,0.050,551
2019-08-17T09:24:13,42.805,6.029,CST-1368DR,8271,11575,15422,0.050,551
2019-08-17T09:27:14,42.805,6.029,CST-1368DR,8271,11573,15419,0.051,551
2019-08-17T09:30:16,42.805,6.029,CST-1368DR,8271,11572,15418,0.051,551
2019-08-17T09:33:18,42.805,6.029,CST-1368DR,8271,11574,15421,0.050,551
2019-08-17T09:36:19,42.805,6.029,CST-1368DR,8271,11575,15422,0.050,550
2019-08-17T09:39:21,42.805,6.029,CST-1368DR,8271,11576,15424,0.049,551
2019-08-17T09:42:23,42.805,6.029,CST-1368DR,8271,11575,15422,0.050,550
2019-08-17T09:45:24,42.805,6.029,CST-1368DR,8271,11576,15423,0.050,551
2019-08-17T09:48:26,42.805,6.029,CST-1368DR,8271,11575,15422,0.050,550
2019-08-17T09:51:27,42.805,6.029,CST-1368DR,8271,11576,15424,0.049,551
2019-08-17T09:54:29,42.805,6.029,CST-1368DR,8271,11574,15421,0.050,551
2019-08-17T09:57:31,42.805,6.029,CST-1368DR,8271,11574,15421,0.050,551
2019-08-17T10:00:32,42.805,6.029,CST-1368DR,8271,11576,15424,0.049,551
2019-08-17T10:03:34,42.805,6.029,CST-1368DR,8271,11576,15423,0.050,550
2019-08-17T10:06:36,42.805,6.029,CST-1368DR,8271,11574,15421,0.050,551
2019-08-17T10:09:37,42.805,6.029,CST-1368DR,8271,11576,15424,0.049,551
2019-08-17T10:12:39,42.805,6.029,CST-1368DR,8271,11575,15422,0.050,551
2019-08-17T10:15:41,42.805,6.029,CST-1368DR,8271,11575,15423,0.050,551
2019-08-17T10:18:42,42.805,6.029,CST-1368DR,8271,11573,15420,0.051,551
2019-08-17T10:21:44,42.805,6.029,CST-1368DR,8271,11571,15417,0.051,551
2019-08-17T10:24:46,42.805,6.029,CST-1368DR,8271,11573,15420,0.051,551
2019-08-17T10:27:48,42.805,6.029,CST-1368DR,8271,11576,15423,0.050,551
2019-08-17T10:30:50,42.805,6.029,CST-1368DR,8271,11576,15424,0.049,551
2019-08-17T10:33:51,42.805,6.029,CST-1368DR,8271,11576,15423,0.050,550
2019-08-17T10:36:53,42.805,6.029,CST-1368DR,8271,11573,15420,0.051,551
2019-08-17T10:39:55,42.805,6.029,CST-1368DR,8271,11575,15423,0.050,551
2019-08-17T10:42:56,42.805,6.029,CST-1368DR,8271,11575,15422,0.050,551
2019-08-17T10:45:58,42.805,6.029,CST-1368DR,8271,11570,15415,0.052,551
2019-08-17T10:48:59,42.805,6.029,CST-1368DR,8271,11573,15420,0.051,551
2019-08-17T10:52:01,42.805,6.029,CST-1368DR,8271,11575,15422,0.050,551
2019-08-17T10:55:03,42.805,6.029,CST-1368DR,8270,11576,15425,0.049,551
2019-08-17T10:58:04,42.805,6.029,CST-1368DR,8270,11576,15425,0.049,551
2019-08-17T11:01:06,42.805,6.029,CST-1368DR,8270,11575,15423,0.050,551
2019-08-17T11:04:08,42.805,6.029,CST-1368DR,8270,11574,15422,0.050,551
2019-08-17T11:07:09,42.805,6.029,CST-1368DR,8270,11571,15418,0.051,551
2019-08-17T11:10:11,42.805,6.029,CST-1368DR,8270,11573,15422,0.050,551
2019-08-17T11:13:13,42.805,6.029,CST-1368DR,8270,11573,15421,0.050,551
2019-08-17T11:16:14,42.805,6.029,CST-1368DR,8270,11571,15418,0.051,551
2019-08-17T11:19:16,42.805,6.029,CST-1368DR,8270,11573,15422,0.050,551
2019-08-17T11:22:18,42.805,6.029,CST-1368DR,8270,11574,15422,0.050,551
2019-08-17T11:25:19,42.805,6.029,CST-1368DR,8270,11573,15421,0.050,551
2019-08-17T11:28:21,42.805,6.029,CST-1368DR,8270,11573,15422,0.050,551
2019-08-17T11:31:23,42.805,6.029,CST-1368DR,8270,11576,15425,0.049,551
2019-08-17T11:34:24,42.805,6.029,CST-1368DR,8270,11572,15420,0.051,551
2019-08-17T11:37:26,42.805,6.029,CST-1368DR,8270,11572,15419,0.051,551
2019-08-17T11:40:27,42.805,6.029,CST-1368DR,8270,11575,15424,0.049,551
2019-08-17T11:43:29,42.805,6.029,CST-1368DR,8270,11572,15420,0.051,551
2019-08-17T11:46:31,42.805,6.029,CST-1368DR,8270,11571,15419,0.051,551
2019-08-17T11:49:32,42.805,6.029,CST-1368DR,8270,11572,15419,0.051,551
2019-08-17T11:52:34,42.805,6.029,CST-1368DR,8270,11573,15421,0.050,551
2019-08-17T11:55:36,42.805,6.029,CST-1368DR,8270,11574,15423,0.050,551
2019-08-17T11:58:37,42.805,6.029,CST-1368DR,8270,11571,15419,0.051,551
2019-08-17T12:01:39,42.805,6.029,CST-1368DR,8270,11573,15421,0.050,551
2019-08-17T12:04:41,42.805,6.029,CST-1368DR,8270,11572,15420,0.051,551
2019-08-17T12:07:42,42.805,6.029,CST-1368DR,8270,11568,15414,0.052,551
2019-08-17T12:10:44,42.805,6.029,CST-1368DR,8270,11574,15422,0.050,551
2019-08-17T12:13:45,42.805,6.029,CST-1368DR,8270,11574,15422,0.050,550
2019-08-17T12:16:47,42.805,6.029,CST-1368DR,8270,11573,15421,0.050,550
2019-08-17T12:19:49,42.805,6.029,CST-1368DR,8270,11573,15421,0.050,551
2019-08-17T12:22:50,42.805,6.029,CST-1368DR,8270,11572,15420,0.051,551
2019-08-17T12:25:52,42.805,6.029,CST-1368DR,8269,11572,15421,0.050,551
2019-08-17T12:28:54,42.805,6.029,CST-1368DR,8269,11574,15424,0.049,551
2019-08-17T12:31:55,42.805,6.029,CST-1368DR,8269,11566,15414,0.052,551
2019-08-17T12:34:57,42.805,6.029,CST-1368DR,8269,11574,15424,0.049,551
2019-08-17T12:37:59,42.805,6.029,CST-1368DR,8269,11573,15423,0.050,551
2019-08-17T12:41:00,42.805,6.029,CST-1368DR,8269,11574,15424,0.049,551
2019-08-17T12:44:02,42.805,6.029,CST-1368DR,8269,11574,15424,0.049,550
2019-08-17T12:47:04,42.805,6.029,CST-1368DR,8269,11574,15424,0.049,551
2019-08-17T12:50:05,42.805,6.029,CST-1368DR,8269,11571,15421,0.050,551
2019-08-17T12:53:07,42.805,6.029,CST-1368DR,8269,11574,15425,0.049,551
2019-08-17T12:56:08,42.805,6.029,CST-1368DR,8269,11575,15425,0.049,551
2019-08-17T12:59:10,42.805,6.029,CST-1368DR,8269,11575,15425,0.049,551
2019-08-17T13:02:12,42.805,6.029,CST-1368DR,8269,11573,15422,0.050,551
2019-08-17T13:05:13,42.805,6.029,CST-1368DR,8269,11575,15426,0.049,551
2019-08-17T13:08:15,42.805,6.029,CST-1368DR,8269,11574,15424,0.049,551
2019-08-17T13:11:17,42.805,6.029,CST-1368DR,8269,11575,15426,0.049,551
2019-08-17T13:14:18,42.805,6.029,CST-1368DR,8269,11571,15420,0.051,550
2019-08-17T13:17:20,42.805,6.029,CST-1368DR,8269,11574,15424,0.049,551
2019-08-17T13:20:22,42.805,6.029,CST-1368DR,8269,11574,15424,0.049,551
2019-08-17T13:23:23,42.805,6.029,CST-1368DR,8269,11573,15423,0.050,551
2019-08-17T13:26:25,42.805,6.029,CST-1368DR,8269,11575,15425,0.049,551
2019-08-17T13:29:27,42.805,6.029,CST-1368DR,8269,11574,15424,0.049,551
2019-08-17T13:32:28,42.805,6.029,CST-1368DR,8269,11574,15424,0.049,551
2019-08-17T13:35:30,42.805,6.029,CST-1368DR,8269,11572,15421,0.050,551
2019-08-17T13:38:32,42.805,6.029,CST-1368DR,8269,11573,15422,0.050,550
2019-08-17T13:41:33,42.805,6.029,CST-1368DR,8269,11571,15420,0.051,551
2019-08-17T13:44:35,42.805,6.029,CST-1368DR,8269,11570,15419,0.051,551
2019-08-17T13:47:36,42.805,6.029,CST-1368DR,8269,11573,15423,0.050,550
2019-08-17T13:50:38,42.805,6.029,CST-1368DR,8269,11572,15421,0.050,551
2019-08-17T13:53:40,42.805,6.029,CST-1368DR,8269,11572,15422,0.050,551
2019-08-17T13:56:41,42.805,6.029,CST-1368DR,8269,11571,15421,0.050,551
2019-08-17T13:59:43,42.805,6.029,CST-1368DR,8269,11571,15420,0.051,551
2019-08-17T14:02:45,42.805,6.029,CST-1368DR,8269,11568,15416,0.052,550
2019-08-17T14:05:46,42.805,6.029,CST-1368DR,8269,11571,15421,0.050,551
2019-08-17T14:08:48,42.805,6.029,CST-1368DR,8269,11570,15418,0.051,551
2019-08-17T14:11:50,42.805,6.029,CST-1368DR,8269,11571,15420,0.051,551
2019-08-17T14:14:51,42.805,6.029,CST-1368DR,8269,11570,15419,0.051,551
2019-08-17T14:17:53,42.805,6.029,CST-1368DR,8269,11573,15423,0.050,551
2019-08-17T14:20:55,42.805,6.029,CST-1368DR,8269,11572,15421,0.050,551
2019-08-17T14:23:56,42.805,6.029,CST-1368DR,8269,11573,15423,0.050,551
2019-08-17T14:26:58,42.805,6.029,CST-1368DR,8269,11570,15418,0.051,551
2019-08-17T14:29:59,42.805,6.029,CST-1368DR,8269,11573,15422,0.050,551
2019-08-17T14:33:01,42.805,6.029,CST-1368DR,8269,11573,15423,0.050,551
2019-08-17T14:36:03,42.805,6.029,CST-1368DR,8269,11562,15409,0.053,551
2019-08-17T14:39:04,42.805,6.029,CST-1368DR,8269,11574,15424,0.049,551
2019-08-17T14:42:06,42.805,6.029,CST-1368DR,8269,11571,15420,0.051,551
2019-08-17T14:45:08,42.805,6.029,CST-1368DR,8268,11571,15422,0.050,551
2019-08-17T14:48:09,42.805,6.029,CST-1368DR,8268,11567,15416,0.052,551
2019-08-17T14:51:11,42.805,6.029,CST-1368DR,8268,11571,15421,0.050,551
2019-08-17T14:54:13,42.805,6.029,CST-1368DR,8268,11573,15425,0.049,551
2019-08-17T14:57:14,42.805,6.029,CST-1368DR,8268,11570,15420,0.051,551
2019-08-17T15:00:16,42.805,6.029,CST-1368DR,8268,11573,15424,0.049,551
2019-08-17T15:03:18,42.805,6.029,CST-1368DR,8268,11573,15425,0.049,551
2019-08-17T15:06:19,42.805,6.029,CST-1368DR,8268,11571,15421,0.050,551
2019-08-17T15:09:21,42.805,6.029,CST-1368DR,8268,11572,15423,0.050,551
2019-08-17T15:12:22,42.805,6.029,CST-1368DR,8268,11572,15423,0.050,551
2019-08-17T15:15:24,42.805,6.029,CST-1368DR,8268,11571,15422,0.050,551
2019-08-17T15:18:26,42.805,6.029,CST-1368DR,8268,11573,15425,0.049,550
2019-08-17T15:21:27,42.805,6.029,CST-1368DR,8268,11572,15423,0.050,551
2019-08-17T15:24:29,42.805,6.029,CST-1368DR,8268,11573,15424,0.049,551
2019-08-17T15:27:31,42.805,6.029,CST-1368DR,8268,11573,15424,0.049,551
2019-08-17T15:30:32,42.805,6.029,CST-1368DR,8268,11572,15423,0.050,551
2019-08-17T15:33:34,42.805,6.029,CST-1368DR,8268,11571,15422,0.050,551
2019-08-17T15:36:36,42.805,6.029,CST-1368DR,8268,11572,15423,0.050,551
2019-08-17T15:39:38,42.805,6.029,CST-1368DR,8268,11572,15423,0.050,551
2019-08-17T15:42:39,42.805,6.029,CST-1368DR,8268,11561,15409,0.053,551
2019-08-17T15:45:41,42.805,6.029,CST-1368DR,8268,11563,15412,0.053,551
2019-08-17T15:48:42,42.805,6.029,CST-1368DR,8268,11567,15416,0.052,551
2019-08-17T15:51:44,42.805,6.029,CST-1368DR,8268,11573,15424,0.049,551
2019-08-17T15:54:46,42.805,6.029,CST-1368DR,8268,11571,15422,0.050,551
2019-08-17T15:57:48,42.805,6.029,CST-1368DR,8268,11568,15417,0.051,550
2019-08-17T16:00:49,42.805,6.029,CST-1368DR,8268,11573,15424,0.049,550
2019-08-17T16:03:51,42.805,6.029,CST-1368DR,8268,11571,15422,0.050,551
2019-08-17T16:06:53,42.805,6.029,CST-1368DR,8268,11570,15421,0.050,551
2019-08-17T16:09:54,42.805,6.029,CST-1368DR,8268,11571,15422,0.050,550
2019-08-17T16:12:56,42.805,6.029,CST-1368DR,8268,11571,15422,0.050,551
2019-08-17T16:15:58,42.805,6.029,CST-1368DR,8268,11568,15418,0.051,551
2019-08-17T16:18:59,42.805,6.029,CST-1368DR,8268,11570,15420,0.051,551
2019-08-17T16:22:01,42.805,6.029,CST-1368DR,8268,11570,15421,0.050,551
2019-08-17T16:25:03,42.805,6.029,CST-1368DR,8268,11572,15423,0.050,551
2019-08-17T16:28:04,42.805,6.029,CST-1368DR,8268,11570,15420,0.051,551
2019-08-17T16:31:06,42.805,6.029,CST-1368DR,8268,11571,15422,0.050,551
2019-08-17T16:34:07,42.805,6.029,CST-1368DR,8267,11570,15422,0.050,551
2019-08-17T16:37:09,42.805,6.029,CST-1368DR,8267,11570,15422,0.050,551